DRAGON CRS-13 DEB

Last updated on Thu Dec 21 2017 00:15:03 GMT+0000 (Coordinated Universal Time)

1 43062U 17080C 17353.87393120 .08359610 12257-4 19425-2 0 9999 2 43062 51.6463 191.2243 0043204 63.3240 297.8194 16.26136877 686

Satellite not in orbit